Location: Buisson
(44.2787°N, 4.9969°E)
Time: 10:41:11
(UTC+00:00)

X-37B - Pass Details

Date: 05 October 2021
Orbit: 385 x 389 km, 45.0° (Epoch: 13 October)

Event Time Altitude Azimuth Distance (km) Brightness Sun altitude
Exits shadow 03:39:11 12° 147° (SSE) 1,293 3.4 -22.7°
Drops below altitude 10° 03:39:30 10° 145° (SE) 1,407 3.6 -22.6°
Sets 03:41:43 0° 134° (SE) 2,259 4.9 -22.3°
